Weather History for Ogallala, NE

Change the Weather History Date:

Friday, June 20, 2014

  Actual Average Record
Temperature  
Mean Temperature 73 °F -  
Max Temperature 86 °F 86 °F 105 °F (1989)
Min Temperature 60 °F 56 °F 42 °F (1972)
Cooling Degree Days 8    
Growing Degree Days 23 (Base 50)    
Moisture  
Dew Point 60 °F    
Average Humidity 65    
Maximum Humidity 85    
Minimum Humidity 42    
Precipitation  
Precipitation 0.00 in - - ()
Sea Level Pressure  
Sea Level Pressure 30.00 in    
Wind  
Wind Speed 6 mph (SSE)    
Max Wind Speed 15 mph    
Max Gust Speed 17 mph    
Visibility 10 miles    
Events Thunderstorm    
Averages and records for this station are not official NWS values.
T = Trace of Precipitation, MM = Missing Value Source: NWS Daily Summary

Daily Weather History Graph

Daily Weather History Graph

Search for Another Location

Airport:

Trip Planner

Search our weather history database for the weather conditions in past years. The results will help you decide how hot, cold, wet, or windy it might be!

Date:

Astronomy

Jun. 20, 2014 Rise Set
Actual Time 5:14 AM MDT 8:22 PM MDT
Civil Twilight 4:40 AM MDT 8:56 PM MDT
Nautical Twilight 3:57 AM MDT 9:39 PM MDT
Astronomical Twilight 3:06 AM MDT 10:31 PM MDT
Moon 12:57 AM MDT (6/20) 1:57 PM MDT (6/20)
Length of Visible Light 16h 15m
Length of Day
15h 08m
Last Quarter, 39% of the Moon is Illuminated
Jun 20
Last Quarter
Jun 27
New
Jul 5
First Quarter
Jul 12
Full
Jul 18
Last Quarter

Hourly Weather History & Observations

Time (MDT) Temp. Heat Index Dew Point Humidity Pressure Visibility Wind Dir Wind Speed Gust Speed Precip Events Conditions
12:15 AM 64.4 °F - 51.8 °F 64% 30.06 in 10.0 mi South 5.8 mph - N/A   Clear
12:35 AM 64.4 °F - 51.6 °F 63% 30.06 in 10.0 mi South 5.8 mph - N/A   Clear
12:55 AM 64.9 °F - 51.8 °F 62% 30.06 in 10.0 mi South 11.5 mph 17.3 mph N/A   Clear
1:15 AM 64.4 °F - 52.7 °F 66% 30.06 in 10.0 mi South 11.5 mph 16.1 mph N/A   Clear
1:35 AM 64.4 °F - 52.7 °F 66% 30.06 in 10.0 mi South 11.5 mph 17.3 mph N/A   Clear
1:55 AM 64.4 °F - 53.1 °F 67% 30.06 in 10.0 mi South 12.7 mph - N/A   Clear
2:15 AM 64.4 °F - 53.6 °F 68% 30.05 in 10.0 mi South 12.7 mph - N/A   Clear
2:35 AM 63.3 °F - 53.8 °F 71% 30.06 in 10.0 mi South 10.4 mph - N/A   Clear
2:55 AM 62.2 °F - 53.8 °F 74% 30.06 in 10.0 mi SSW 8.1 mph - N/A   Clear
3:15 AM 61.7 °F - 54.0 °F 76% 30.06 in 10.0 mi SSW 5.8 mph - N/A   Clear
3:35 AM 61.7 °F - 54.3 °F 77% 30.06 in 10.0 mi SSW 3.5 mph - N/A   Clear
3:55 AM 61.7 °F - 54.7 °F 78% 30.05 in 10.0 mi SSW 4.6 mph - N/A   Clear
4:55 AM 62.1 °F - 55.2 °F 78% 30.05 in 10.0 mi Calm Calm - N/A   Clear
5:15 AM 60.4 °F - 55.0 °F 82% 30.06 in 10.0 mi WNW 3.5 mph - N/A   Clear
5:35 AM 62.4 °F - 54.9 °F 76% 30.07 in 10.0 mi Calm Calm - N/A   Clear
5:55 AM 63.7 °F - 55.0 °F 73% 30.06 in 10.0 mi South 9.2 mph - N/A   Clear
6:15 AM 63.9 °F - 55.8 °F 75% 30.07 in 10.0 mi WNW 3.5 mph - N/A   Scattered Clouds
6:35 AM 65.1 °F - 55.9 °F 72% 30.07 in 10.0 mi West 3.5 mph - N/A   Clear
6:55 AM 66.6 °F - 56.7 °F 70% 30.07 in 10.0 mi West 4.6 mph - N/A   Clear
7:15 AM 66.9 °F - 57.2 °F 71% 30.06 in 10.0 mi SW 3.5 mph - N/A   Clear
7:35 AM 67.8 °F - 57.7 °F 70% 30.06 in 10.0 mi SW 4.6 mph - N/A   Clear
7:55 AM 68.7 °F - 58.8 °F 71% 30.06 in 10.0 mi WSW 5.8 mph - N/A   Clear
8:15 AM 70.0 °F - 59.4 °F 69% 30.07 in 10.0 mi Calm Calm - N/A   Clear
8:35 AM 70.2 °F - 60.1 °F 70% 30.07 in 10.0 mi Calm Calm - N/A   Scattered Clouds
8:55 AM 71.4 °F - 60.8 °F 69% 30.06 in 10.0 mi Calm Calm - N/A   Scattered Clouds
9:15 AM 70.5 °F - 60.3 °F 70% 30.05 in 10.0 mi Calm Calm - N/A Thunderstorm Mostly Cloudy
9:35 AM 69.8 °F - 61.5 °F 75% 30.06 in 10.0 mi South 3.5 mph - N/A   Overcast
9:55 AM 70.2 °F - 60.1 °F 70% 30.05 in 10.0 mi Calm Calm - N/A   Overcast
10:15 AM 70.9 °F - 61.0 °F 71% 30.04 in 10.0 mi Calm Calm - N/A   Scattered Clouds
10:35 AM 72.3 °F - 61.9 °F 70% 30.05 in 10.0 mi ENE 8.1 mph - N/A   Clear
10:55 AM 75.4 °F - 61.9 °F 63% 30.04 in 10.0 mi NNE 5.8 mph - N/A   Clear
11:15 AM 77.7 °F - 60.1 °F 54% 30.04 in 10.0 mi East 6.9 mph - N/A   Clear
11:35 AM 76.8 °F - 59.4 °F 55% 30.04 in 10.0 mi SE 4.6 mph - N/A   Clear
11:55 AM 77.5 °F - 61.3 °F 57% 30.03 in 10.0 mi ESE 4.6 mph - N/A   Clear
12:15 PM 78.3 °F - 62.1 °F 57% 30.03 in 10.0 mi SE 6.9 mph - N/A   Clear
12:35 PM 79.7 °F - 61.3 °F 53% 30.03 in 10.0 mi SE 6.9 mph - N/A   Clear
12:55 PM 80.6 °F 81.6 °F 61.5 °F 52% 30.02 in 10.0 mi SE 8.1 mph - N/A   Clear
1:55 PM 83.5 °F 83.7 °F 61.0 °F 46% 30.00 in 10.0 mi ESE 8.1 mph - N/A   Clear
2:15 PM 83.7 °F 84.5 °F 62.6 °F 49% 30.00 in 10.0 mi South 10.4 mph - N/A   Clear
2:35 PM 83.7 °F 84.7 °F 63.0 °F 50% 29.99 in 10.0 mi SE 8.1 mph - N/A   Scattered Clouds
2:55 PM 84.6 °F 84.8 °F 61.3 °F 45% 29.98 in 10.0 mi South 9.2 mph - N/A   Clear
3:15 PM 83.7 °F 84.5 °F 62.6 °F 49% 29.98 in 10.0 mi South 5.8 mph - N/A   Scattered Clouds
3:35 PM 84.9 °F 85.6 °F 62.6 °F 47% 29.97 in 10.0 mi SSE 3.5 mph - N/A   Scattered Clouds
3:55 PM 85.8 °F 86.6 °F 63.1 °F 46% 29.95 in 10.0 mi SSW 6.9 mph - N/A   Clear
4:15 PM 86.4 °F 87.0 °F 62.8 °F 45% 29.95 in 10.0 mi South 8.1 mph - N/A   Clear
4:35 PM 86.0 °F 87.1 °F 63.9 °F 47% 29.94 in 10.0 mi Calm Calm - N/A   Clear
4:55 PM 86.4 °F 87.3 °F 63.5 °F 46% 29.93 in 10.0 mi Calm Calm - N/A   Scattered Clouds
5:15 PM 86.7 °F 87.5 °F 63.3 °F 45% 29.92 in 10.0 mi SSW 6.9 mph - N/A   Scattered Clouds
5:35 PM 86.9 °F 87.5 °F 62.4 °F 44% 29.91 in 10.0 mi Calm Calm - N/A   Clear
5:55 PM 86.9 °F 87.0 °F 61.5 °F 42% 29.90 in 10.0 mi Calm Calm - N/A   Clear
6:15 PM 86.4 °F 86.8 °F 61.9 °F 44% 29.90 in 10.0 mi Calm Calm - N/A   Clear
7:15 PM 82.4 °F 84.4 °F 65.8 °F 57% 29.90 in 10.0 mi NNE 6.9 mph - N/A   Clear
7:35 PM 79.7 °F - 67.6 °F 66% 29.89 in 10.0 mi North 6.9 mph - N/A   Clear
7:55 PM 77.9 °F - 66.2 °F 67% 29.89 in 10.0 mi North 6.9 mph - N/A   Clear
8:15 PM 75.4 °F - 66.2 °F 73% 29.88 in 10.0 mi North 8.1 mph - N/A   Clear
8:55 PM 73.6 °F - 63.5 °F 71% 29.90 in 10.0 mi NNW 6.9 mph - N/A   Clear
9:15 PM 75.4 °F - 66.0 °F 73% 29.93 in 10.0 mi East 15.0 mph - N/A   Clear
9:35 PM 74.7 °F - 65.1 °F 72% 29.94 in 10.0 mi East 11.5 mph - N/A   Clear
9:55 PM 73.4 °F - 63.5 °F 71% 29.94 in 10.0 mi East 6.9 mph - N/A   Clear
10:15 PM 71.8 °F - 63.9 °F 76% 29.94 in 10.0 mi ESE 4.6 mph - N/A   Clear
10:35 PM 69.1 °F - 63.5 °F 82% 29.94 in 10.0 mi Calm Calm - N/A   Clear
10:55 PM 68.0 °F - 63.0 °F 84% 29.93 in 10.0 mi NE 4.6 mph - N/A   Clear
11:15 PM 67.8 °F - 63.0 °F 84% 29.93 in 10.0 mi NE 4.6 mph - N/A   Clear
11:35 PM 68.2 °F - 63.7 °F 85% 29.93 in 10.0 mi NNE 4.6 mph - N/A   Clear
11:55 PM 68.4 °F - 63.7 °F 85% 29.92 in 10.0 mi ENE 3.5 mph - N/A   Clear